Showing default

GOES 13, 29155

Orbit data source: Space-Track

GOES 13, 29155 is a payload satellite owned by NOAA (US) in GEO that was launched on Wed, 24 May 2006 UTC via a DELTA 4M+(4,2) launch vehicle from the Air Force Eastern Test Range (AFETR). Payload-class satellites include a variety of spacecraft equipped with specific instruments for various scientific and technological missions. These include communications satellites like Starlink; space stations such as the ISS; scientific satellites like the Hubble; Earth observation satellites from companies like Planet Labs, Umbra, and HawkEye 360; GPS; miniature CubeSats for education and research; and military/defense satellites.

Not visible in the next 10 days
Identifier
29155, 2006-018A
Orbit
GEO
Country
Flag of USUS
Related business
Manufacturer
Boeing/ES
Mission
Non-operational Civil Weather
Bus & Motor
HS-601, R-4D-11-300
Mass
3,209 kg wet, 1,543 kg dry
Launch date (UTC)
2006-05-24 (19 years ago)
Launch vehicle
DELTA 4M+(4,2)
Launch site
Air Force Eastern Test Range (AFETR)
Object type
Payload
Rocket body
Debris
Shape & HBR
Box + 1 Pan + 1 Ant, 5.0 m
Radar Cross Section
30.033 m², Large (>1 m²)

Expand to show TLE details & history
Last TLE update: 15 hours ago

TLE from 15 hours ago
0 GOES 13
1 29155U 06018A   25241.84560531 -.00000230  00000-0  00000-0 0  9999
2 29155   3.7694  79.9902 0058859 267.6024 101.2654  0.98790364 40370
Epoch: 2025-08-29T20:17Z
TLE epoch observation values (Epoch: 2025-08-29T20:17:40.298Z)
Latitude
0.60765°
Longitude
166.78607°
Altitude
36,257.372 km
Speed
3.056 km/s
True Right ascension
05h 57m 58s
True Declination
0° 36' 25"
Sunlit
Object was in daylight at epoch
Visualization orbit readout
Latitude
Unknown
Longitude
Unknown
Altitude
Unknown
Speed
Unknown
Apparent Right ascension
Unknown
Apparent Declination
Unknown
Sunlit
N/A
Visualization observer readout
Local Sidereal Time
02:25:33
Azimuth
Unknown
Elevation
Unknown
Doppler factor
Unknown
Orbital elements
Apogee altitude
36,458.784 km
Perigee altitude
35,957.467 km
Semi-major axis
42,586.263 km
Eccentricity
0.00589
Inclination
3.7694°
RAAN
79.9902°
Arg. of periapsis
267.6024°
True anomaly
101.92592°
Mean anomaly
101.2654°
Eccentric anomaly
101.59575°
Mean motion
0.24697 °/min
Orbital period
1,457.68 mins
BSTAR
0
Loading maneuver chart data...
Computing Atmospheric mass density...
Loading historical data...
Loading historical data...
Loading historical data...
Loading historical data...
Loading historical data...
Loading historical data...
Loading historical data...
Other satellites on launch #18 in the year 2006 (2006-05-24 UTC)

Documentation

Showing up to 5 results
|